Theta_e
307 307 307 307 307 307 307 307 307 306 307 307 307 307 307 308 310 313 314 316 316 315 316 316 316 315 315 319 321 323 327 328 331 336 337 335 340 336 337 339 338 339 339 336 342
307 306 306 306 307 307 307 307 307 307 307 307 307 307 307 308 312 314 319 318 316 317 317 317 318 315 318 320 321 324 326 326 327 334 336 337 339 339 339 340 340 340 338 340 342
306 306 306 306 307 306 306 307 306 307 306 307 307 307 308 310 317 320 319 315 319 317 318 316 315 317 319 317 319 321 325 323 324 328 334 337 337 336 339 341 340 340 339 341 343
306 305 306 306 306 306 306 306 306 306 306 306 307 307 308 315 320 318 321 315 317 316 317 315 316 318 320 321 317 321 321 321 323 329 333 336 335 335 337 339 336 339 339 340 343
306 305 305 306 306 306 306 306 306 306 306 307 307 307 310 313 316 320 319 316 317 317 317 316 320 321 324 321 319 320 322 322 327 329 333 334 336 335 334 334 333 338 339 341 342
306 306 306 306 306 306 306 306 306 306 306 307 307 307 311 317 316 322 314 314 317 317 315 317 322 321 322 322 322 323 322 329 332 333 333 336 335 334 332 335 339 339 339 340 342
306 306 306 306 306 306 306 306 306 306 307 306 307 307 311 316 317 319 320 314 314 315 317 317 319 321 322 323 322 324 329 330 332 334 335 332 337 333 332 339 341 342 341 340 341
306 306 306 307 307 307 306 306 307 307 307 307 307 309 314 318 320 320 320 318 316 315 314 315 317 320 322 322 325 328 329 332 331 334 332 334 338 335 336 341 342 341 341 342 340
306 306 306 307 307 307 307 307 307 307 307 308 311 314 319 319 320 321 322 322 319 317 316 317 320 322 324 326 328 328 332 332 332 333 335 336 337 337 338 341 343 341 341 341 343
307 307 307 307 307 307 307 307 307 307 310 313 314 317 319 321 321 320 320 322 320 320 322 323 323 326 325 328 330 330 331 334 336 335 337 337 337 337 338 340 342 342 341 342 342
307 307 307 307 307 307 307 307 313 316 312 316 317 318 318 319 319 320 320 320 321 324 326 323 327 327 325 325 326 327 333 337 335 332 332 333 334 335 333 336 340 340 341 342 342
307 307 307 307 307 307 307 309 311 310 314 312 313 314 316 317 320 321 320 324 325 325 323 326 326 325 324 324 328 333 333 335 331 330 332 333 333 333 335 340 340 339 341 342 341
308 308 307 307 307 307 307 308 311 310 314 318 316 318 320 319 322 322 322 322 323 324 324 326 325 322 324 329 331 329 335 334 332 329 330 331 333 334 333 339 341 340 339 341 341
308 308 308 307 307 307 308 310 311 310 323 322 324 322 319 319 323 321 321 323 323 324 323 325 324 324 330 330 330 333 328 329 331 332 333 329 334 334 332 338 342 344 343 342 341
309 308 308 307 309 311 311 310 310 314 326 322 324 320 319 322 322 323 319 323 323 323 326 327 328 329 331 329 327 332 329 331 332 334 334 333 334 334 332 337 342 344 343 342 341
310 308 308 307 308 310 310 312 313 326 326 325 324 321 321 321 321 321 322 322 321 328 330 328 327 329 329 328 328 328 330 331 331 334 336 333 334 335 335 335 338 339 339 337 334
310 308 308 308 308 312 312 317 325 328 324 326 323 320 321 321 321 322 322 323 325 332 332 331 331 330 331 331 330 329 332 333 335 336 337 331 334 336 333 333 336 337 336 334 332
310 308 309 309 308 313 315 324 326 323 325 325 319 320 323 321 321 321 322 323 323 331 332 331 333 333 332 332 333 332 332 331 333 338 336 332 336 335 331 333 333 332 332 332 331
310 309 309 310 309 309 323 324 324 324 326 328 320 322 321 321 322 323 322 323 322 330 335 336 334 331 332 331 331 334 336 330 336 330 334 334 334 332 332 334 331 332 331 330 329
313 313 312 312 310 313 324 320 324 322 327 326 323 323 323 321 323 324 323 323 327 326 331 334 336 333 333 330 331 333 330 334 333 337 335 334 334 335 336 336 331 332 331 329 328
313 319 316 310 317 325 326 324 326 326 327 328 328 324 322 323 322 323 324 328 329 330 331 333 337 335 332 335 336 333 335 331 332 331 335 335 334 331 336 334 332 331 330 330 328
317 320 315 315 325 322 327 326 322 324 324 325 327 330 331 326 323 327 328 330 333 333 336 333 339 338 335 331 333 332 333 331 334 337 333 335 336 331 332 332 332 331 329 329 327
316 322 315 317 326 325 323 322 323 324 325 327 330 330 330 332 335 331 335 331 333 333 338 336 338 339 336 332 333 335 334 331 333 335 338 335 335 332 331 332 331 331 327 326 325
320 325 321 320 318 324 324 323 325 323 325 325 328 329 332 335 333 335 333 334 333 331 331 336 335 337 329 329 332 336 334 332 335 337 337 337 335 336 334 333 332 331 326 324 324
323 328 322 322 322 321 322 321 322 326 323 323 331 334 333 337 336 336 333 334 333 333 332 337 338 334 332 332 333 334 334 334 335 334 336 334 336 335 334 333 332 330 326 324 324
321 324 326 329 328 321 319 322 323 325 323 324 334 334 334 337 335 336 334 332 335 336 336 336 341 336 336 333 333 334 333 333 334 333 334 334 335 333 332 331 331 329 327 326 324
313 315 325 325 326 322 323 323 327 328 327 328 329 336 338 337 334 332 330 333 336 340 340 338 338 337 338 333 332 333 336 334 334 333 335 335 334 332 333 332 330 329 328 327 323
Wind_Speed
9 9 10 10 12 12 13 13 15 16 16 19 21 22 24 27 29 16 4 1 2 7 5 7 6 3 3 3 2 2 1 3 4 3 2 4 6 2 2 3 3 4 1 3 18
9 10 11 11 12 13 13 14 15 16 16 19 21 23 24 28 20 4 0 1 6 9 7 8 5 4 2 2 2 2 2 5 3 5 3 7 7 6 4 5 6 3 4 13 17
10 10 12 12 12 14 14 14 15 15 16 18 20 22 24 20 4 2 3 1 7 9 6 4 6 2 3 1 3 3 4 3 2 6 5 7 8 7 8 6 7 8 9 13 15
11 11 12 12 13 14 15 14 15 14 16 17 19 22 21 6 2 1 4 3 11 13 8 5 3 2 1 2 3 4 8 7 3 3 6 5 7 5 9 3 4 4 14 13 11
12 12 12 13 13 14 14 14 14 13 14 16 18 20 9 3 5 4 1 7 10 10 5 3 3 3 2 2 3 4 4 3 5 5 2 5 3 3 4 6 5 13 14 12 11
13 13 13 14 13 14 13 13 13 12 13 15 16 16 4 3 2 5 4 9 9 8 4 4 2 2 2 3 3 2 2 8 6 8 5 3 1 2 11 7 10 15 14 12 13
12 14 13 14 13 13 13 13 12 11 12 14 14 12 1 6 3 3 1 4 9 9 5 5 3 2 1 4 2 2 1 7 14 4 5 6 2 10 15 7 14 13 13 12 13
12 12 13 13 12 12 12 12 11 11 12 13 13 5 6 3 6 11 8 7 9 8 6 3 3 3 2 0 3 3 3 4 12 6 3 4 7 18 14 13 14 12 10 11 9
13 12 11 10 9 9 10 11 11 11 11 10 3 1 7 10 1 5 6 3 7 4 4 3 0 2 1 3 3 8 8 7 4 12 2 5 6 16 12 16 13 8 7 7 7
14 11 8 8 6 7 8 11 11 8 3 2 0 2 5 3 4 5 3 3 1 6 5 1 2 2 4 3 4 5 6 6 5 7 17 17 14 15 15 15 10 7 6 4 4
14 9 6 5 4 5 5 5 2 1 2 4 0 4 6 9 5 3 3 5 2 5 2 3 3 7 5 1 8 10 12 14 9 3 13 14 17 16 12 13 5 5 7 2 3
13 7 4 4 3 3 3 2 2 2 5 5 7 7 10 4 2 1 7 2 3 5 1 3 4 1 4 8 12 14 15 8 10 15 15 16 16 12 16 12 11 7 6 7 7
14 6 4 3 2 2 1 3 8 3 2 3 4 4 2 5 1 1 1 2 4 5 6 3 4 3 4 5 9 6 7 9 16 9 8 9 14 13 11 14 13 13 9 9 9
12 5 3 3 1 1 2 4 12 9 0 0 2 2 4 2 1 2 1 2 3 3 2 3 5 6 9 6 4 2 3 8 15 10 4 6 5 8 11 13 14 12 12 10 10
10 4 5 8 2 2 2 7 4 2 4 1 2 1 2 2 3 1 2 3 5 2 2 3 6 6 8 3 2 2 4 13 8 9 5 7 4 4 5 9 12 13 12 11 10
8 4 8 7 5 2 6 4 4 0 2 2 1 4 3 1 1 2 1 7 3 5 9 3 1 4 3 4 2 8 8 8 4 1 2 4 2 3 2 3 5 9 11 11 10
7 5 11 8 1 6 3 2 0 1 2 4 3 3 3 2 2 2 2 3 3 4 4 4 4 2 4 2 6 2 2 3 4 1 1 3 2 3 2 3 4 6 8 7 7
6 4 8 11 7 3 1 2 1 1 4 2 3 5 3 2 3 2 3 3 3 6 3 3 4 6 6 4 2 4 1 1 3 2 2 0 2 4 2 2 5 5 6 6 7
5 2 4 3 14 2 1 2 2 4 2 4 3 4 2 1 3 3 1 6 1 3 4 4 3 1 5 5 2 2 2 2 5 1 3 1 1 3 3 4 5 6 8 8 7
2 1 2 3 8 5 2 3 3 4 3 1 4 1 5 3 3 2 3 2 3 0 1 5 4 1 2 2 9 3 6 1 1 2 2 1 3 3 8 9 4 4 4 3 2
1 1 6 10 8 1 3 4 4 5 6 5 4 4 2 3 2 2 4 2 2 3 3 4 2 2 2 5 3 1 2 4 3 2 1 1 0 1 10 8 4 2 0 2 0
1 1 3 7 2 1 3 4 1 4 0 3 2 3 4 3 3 3 4 2 2 4 5 2 3 3 3 1 1 1 2 1 2 1 2 2 1 1 6 6 4 3 2 3 0
0 1 4 3 3 1 1 2 3 3 3 2 1 2 2 4 4 3 2 1 2 1 6 7 2 3 3 3 2 0 2 3 4 1 2 3 2 3 5 5 5 5 5 3 0
1 2 1 2 1 3 2 2 3 2 3 0 2 3 4 3 2 5 3 3 2 3 6 6 3 2 1 1 1 3 2 2 1 2 2 3 2 8 9 8 7 7 6 2 1
2 1 1 4 2 2 2 1 2 3 2 3 3 3 3 4 3 3 2 5 4 2 4 3 4 3 3 1 1 3 0 3 3 1 3 3 3 1 10 10 7 7 5 2 2
1 1 2 2 2 1 2 2 0 3 2 2 4 3 1 4 4 8 6 2 3 3 3 1 4 3 3 1 1 3 3 3 1 2 3 1 3 3 7 10 7 7 5 1 3
4 2 2 1 2 2 2 1 1 2 1 1 2 4 6 2 1 7 7 7 5 4 3 3 5 2 3 2 1 1 2 2 1 2 1 1 3 7 8 9 8 6 4 1 3
Wind_Direction
296 301 303 307 308 313 318 322 326 332 339 334 333 331 335 330 327 322 248 167 54 221 165 151 147 129 102 106 101 145 189 242 259 190 257 152 170 116 79 136 180 175 193 75 132
299 299 299 300 302 305 311 315 322 327 335 332 333 331 335 330 331 288 357 190 142 130 144 168 139 138 129 108 106 213 242 241 226 164 213 182 180 160 183 194 208 161 82 126 144
299 298 295 298 298 300 304 310 316 325 331 334 333 332 334 333 306 100 347 260 185 172 175 136 118 153 160 169 170 153 248 302 315 221 221 202 179 171 212 227 230 201 140 144 147
298 297 295 295 294 297 299 306 313 321 330 334 333 333 335 357 84 109 344 101 153 177 160 124 107 125 220 212 161 254 255 256 328 157 185 193 144 184 213 229 17 136 146 145 152
298 294 294 291 293 294 297 303 310 318 329 331 332 336 353 332 256 339 112 141 157 160 176 148 158 150 220 207 180 228 293 44 332 163 200 143 202 207 327 275 64 129 140 134 134
298 294 293 287 290 290 296 300 305 314 325 324 329 337 349 290 183 27 124 143 168 168 156 155 202 224 196 207 219 241 268 45 29 109 112 205 169 145 21 16 112 132 130 131 129
304 300 292 287 284 289 292 296 299 311 318 317 328 338 307 243 185 299 192 188 167 167 159 217 197 220 164 172 277 302 22 74 37 66 69 321 218 42 5 98 106 116 117 114 100
316 303 291 287 285 287 289 291 296 306 308 311 321 326 258 296 291 292 235 206 191 202 212 256 209 262 250 283 63 60 61 78 28 0 37 260 42 16 12 95 92 94 95 93 90
324 308 299 290 284 285 285 289 291 298 300 309 346 47 276 315 288 349 177 186 156 164 183 137 164 30 192 78 107 34 76 70 57 16 25 47 36 14 71 82 84 97 120 104 115
327 311 298 289 291 283 291 292 291 294 295 28 82 282 259 315 308 298 233 192 155 124 115 100 58 71 38 28 78 93 100 59 84 49 76 74 68 58 69 93 117 137 141 161 123
334 317 301 288 275 285 307 290 289 160 142 224 333 279 286 304 301 158 183 148 93 74 83 36 77 36 14 104 113 105 120 123 113 73 63 68 56 33 28 59 69 23 81 117 42
341 321 305 281 267 281 303 74 87 49 318 240 250 273 269 264 311 104 164 150 78 72 49 79 57 35 69 145 116 111 124 118 90 97 93 86 67 56 35 27 31 39 55 59 49
341 321 290 257 249 257 227 150 9 224 260 293 212 246 265 180 120 275 209 124 77 56 41 53 0 205 181 141 102 85 140 166 142 124 107 89 60 45 45 45 50 46 42 39 38
340 302 248 211 193 197 240 197 343 163 61 265 247 233 159 238 68 274 234 115 62 75 148 54 8 121 107 83 28 68 315 177 148 168 124 345 113 46 18 48 47 50 44 41 32
334 267 213 198 139 191 137 329 102 134 144 163 174 121 131 186 136 70 2 49 96 88 207 50 53 75 76 34 3 25 109 141 120 95 157 38 116 102 25 40 32 32 30 36 37
329 233 193 205 245 249 323 112 121 245 223 128 191 179 133 16 75 103 81 57 110 77 58 78 129 47 35 50 32 140 96 75 68 94 106 11 292 132 20 327 32 44 40 34 37
324 212 189 185 194 159 44 97 192 192 337 148 153 169 144 135 95 94 80 60 127 110 75 71 33 46 27 121 92 49 163 170 203 144 52 330 231 83 340 15 12 29 46 40 41
329 221 212 212 220 209 172 78 110 327 257 320 152 112 160 148 52 93 102 123 91 93 101 120 146 9 355 36 26 56 326 13 295 200 166 85 202 107 348 82 81 68 61 64 59
325 192 243 240 212 191 132 107 246 211 290 336 131 132 105 164 128 112 64 176 138 158 130 141 121 48 49 54 319 111 61 70 107 41 225 44 161 202 191 155 105 72 60 55 49
323 288 264 299 185 178 109 210 242 226 292 267 162 146 159 155 126 123 199 135 125 160 297 168 125 12 49 169 62 33 127 218 104 170 246 177 268 231 187 189 123 106 67 76 54
35 271 357 139 128 126 185 215 271 247 228 194 189 121 143 137 94 115 168 88 85 104 104 136 94 159 244 30 10 91 119 68 94 342 283 280 231 201 193 167 151 138 22 166 105
47 188 28 145 119 332 156 194 295 287 80 255 220 109 140 122 112 156 166 97 44 182 111 62 106 108 74 40 8 21 81 74 315 160 54 335 62 166 193 152 145 125 119 161 337
133 67 136 358 165 154 227 259 247 312 304 327 117 52 75 128 121 159 125 60 77 119 150 173 44 120 151 158 138 11 72 98 106 168 165 306 26 139 153 163 181 167 160 166 106
184 122 59 56 20 153 145 269 300 261 258 341 113 111 107 112 31 147 139 57 90 96 84 99 93 127 215 80 92 148 139 141 78 272 137 241 291 191 190 179 163 165 172 160 22
9 129 334 161 139 117 108 318 333 328 311 24 73 67 140 117 99 124 132 125 62 140 63 75 101 106 55 264 129 94 174 204 236 315 260 3 235 345 186 170 156 161 173 186 14
46 193 93 84 69 194 46 214 229 313 286 9 108 83 156 142 191 178 142 159 146 78 79 29 132 138 81 17 201 126 70 94 219 166 261 290 247 29 129 139 154 171 175 234 3
22 311 281 346 91 193 211 212 109 6 221 21 143 103 60 41 79 90 96 80 104 131 114 75 133 128 129 2 84 224 19 351 159 252 273 302 18 152 153 166 159 163 188 262 5